User: anonymous   Login
Location: �clusier
(49.9361°N, 2.7869°E)
Time: 20:32:30
(UTC+00:00)
Language:

STARLINK-1521 - Orbit

View from above orbital plane
View from above orbital plane
View from above satellite
View from above satellite

Ground track
Ground track

The orbit data is extracted from the following two-line orbital elements,

1 45768U 20038AQ  22024.57097251  .00002056  00000-0  15685-3 0  9990
2 45768  53.0552 133.3724 0001295  73.6643 286.4488 15.06400864 89620
Epoch (UTC): 24 January 2022 13:42:12
Eccentricity: 0.0001295
inclination: 53.0552°
perigee height: 546 km
apogee height: 548 km
right ascension of ascending node: 133.3724°
argument of perigee: 73.6643°
revolutions per day: 15.06400864
mean anomaly at epoch: 286.4488°
orbit number at epoch: 8962

The dashed part of the orbit path shows where the satellite is in the earth's shadow,  

DLR